This is the latest recevied weather packets stored in our database for station/object VR2MW-X. If no packets are shown the sender has not sent any weather packets the latest 10 day(s).
| Time | Temp. | Humidity | Pressure | Rain* | Wind** | Luminosity | Snow |
|---|---|---|---|---|---|---|---|
| 1777608772 | 27.22° C | 64% | 1014.8 hPa | - | - | - | - |
| 1777608162 | 26.11° C | 67% | 1014.8 hPa | - | - | - | - |
| 1777607551 | 26.11° C | 64% | 1014.8 hPa | - | - | - | - |
| 1777606941 | 26.11° C | 65% | 1015 hPa | - | - | - | - |
| 1777606331 | 26.11° C | 64% | 1015.1 hPa | - | - | - | - |
| 1777605719 | 26.11° C | 64% | 1015.1 hPa | - | - | - | - |
| 1777605108 | 26.11° C | 66% | 1015.1 hPa | - | - | - | - |
| 1777604497 | 26.11° C | 66% | 1015.1 hPa | - | - | - | - |
| 1777603887 | 26.11° C | 64% | 1015.3 hPa | - | - | - | - |
| 1777603277 | 26.11° C | 62% | 1015.3 hPa | - | - | - | - |
| 1777602666 | 26.11° C | 63% | 1015.5 hPa | - | - | - | - |
| 1777602056 | 25° C | 65% | 1015.6 hPa | - | - | - | - |
| 1777601445 | 25° C | 64% | 1015.6 hPa | - | - | - | - |
| 1777600832 | 25° C | 65% | 1015.6 hPa | - | - | - | - |
| 1777599605 | 26.11° C | 62% | 1016.1 hPa | - | - | - | - |
| 1777598993 | 25° C | 63% | 1016 hPa | - | - | - | - |
| 1777598383 | 25° C | 64% | 1015.7 hPa | - | - | - | - |
| 1777597772 | 25° C | 64% | 1015.7 hPa | - | - | - | - |
| 1777597162 | 25° C | 65% | 1015.7 hPa | - | - | - | - |
| 1777596551 | 23.89° C | 66% | 1015.7 hPa | - | - | - | - |
| 1777595941 | 23.89° C | 66% | 1015.7 hPa | - | - | - | - |
| 1777595330 | 23.89° C | 68% | 1015.7 hPa | - | - | - | - |
| 1777594719 | 23.89° C | 68% | 1015.7 hPa | - | - | - | - |
| 1777594108 | 22.78° C | 69% | 1015.7 hPa | - | - | - | - |
| 1777593498 | 22.78° C | 70% | 1015.7 hPa | - | - | - | - |
* Rain since midnight (hover to see other rain measurements)
** Current wind speed in m/s (hover to see current wind gust speed)